Location: Bratislava
(0.0000°N, 17.1167°E)
Time: 03:36:22
(UTC+01:00)

S3M - Pass Details

Date: 24 January 2021
Orbit: 949 x 1004 km, 83.0° (Epoch: 06 March)

Event Time Altitude Azimuth Distance (km) Brightness Sun altitude
Exits shadow 19:23:02 28° 49° (NE) 1,698 4.7 -18.7°
Maximum altitude 19:25:07 36° 87° (E) 1,475 4.4 -19.2°
Drops below altitude 10° 19:30:42 10° 152° (SSE) 2,710 6.2 -20.5°
Sets 19:33:25 0° 160° (SSE) 3,668 7.0 -21.1°
